Stations météo

réclame
Mon MeteoGroup
Santander/Parayas, Espagne (8021): Température de l'air & dewpoint: 15.06.2018 19:00:00 - 21.06.2018 19:00:00 (CEST)Santander/Parayas, Espagne (8021): Vitesse du vent: 15.06.2018 19:00:00 - 21.06.2018 19:00:00 (CEST)Santander/Parayas, Espagne (8021): Direction du vent: 15.06.2018 19:00:00 - 21.06.2018 19:00:00 (CEST)Santander/Parayas, Espagne (8021): reduced air pressure: 15.06.2018 19:00:00 - 21.06.2018 19:00:00 (CEST)Santander/Parayas, Espagne (8021): visibility: 15.06.2018 19:00:00 - 21.06.2018 19:00:00 (CEST)
Date & Time tt [°C] td [°C] ff [km/h] ff [knt] dd ppp [hPa] vv [km]
21.06.2018 19:00:00 22,3 19,3 15 8 WNW 1021,7 -
21.06.2018 18:00:00 23,1 19,3 18 10 WNW 1021,8 -
21.06.2018 17:00:00 23,6 19,2 16 9 W 1021,8 15
21.06.2018 16:00:00 23,1 19,4 16 9 W 1021,9 -
21.06.2018 15:00:00 22,7 19,3 13 7 W 1022,0 -
21.06.2018 14:00:00 22,3 19,2 15 8 W 1022,0 12
21.06.2018 13:00:00 21,9 19,1 16 9 W 1022,1 -
21.06.2018 12:00:00 21,1 19,2 16 9 W 1021,8 -
21.06.2018 11:00:00 20,4 20,1 13 7 W 1021,5 7
21.06.2018 10:00:00 20,4 19,1 11 6 W 1021,1 -
21.06.2018 09:00:00 20,7 18,6 9 5 WSW 1020,5 -
21.06.2018 08:00:00 20,0 19,2 8 4 SW 1020,6 7
21.06.2018 07:00:00 19,7 19,0 9 5 SW 1020,8 -
21.06.2018 06:00:00 19,7 19,0 11 6 W 1020,9 -
21.06.2018 05:00:00 19,6 19,0 8 4 W 1020,7 -
21.06.2018 04:00:00 19,7 18,9 8 4 WSW 1020,7 -
21.06.2018 03:00:00 20,0 18,7 11 6 SW 1021,1 -
21.06.2018 02:00:00 20,0 18,1 9 5 W 1021,3 -
21.06.2018 01:00:00 20,1 18,4 9 5 W 1021,3 -
21.06.2018 00:00:00 20,2 18,3 11 6 WSW 1021,1 -
20.06.2018 23:00:00 20,3 18,2 13 7 WSW 1020,6 15
20.06.2018 22:00:00 20,4 18,2 13 7 W 1020,2 -
20.06.2018 21:00:00 21,0 18,4 13 7 WNW 1019,3 -
20.06.2018 20:00:00 21,8 18,7 9 5 WNW 1018,8 15
20.06.2018 19:00:00 22,3 18,9 13 7 WNW 1018,6 -
20.06.2018 18:00:00 22,5 19,1 15 8 WNW 1018,8 -
20.06.2018 17:00:00 23,3 19,2 11 6 WNW 1018,8 15
20.06.2018 16:00:00 23,3 19,0 13 7 WNW 1018,9 -
20.06.2018 15:00:00 22,9 19,0 15 8 WNW 1018,8 -
20.06.2018 14:00:00 22,5 18,9 13 7 NW 1019,0 15
20.06.2018 13:00:00 22,1 18,7 9 5 NW 1019,2 -
20.06.2018 12:00:00 22,2 18,8 9 5 WNW 1019,2 -
20.06.2018 11:00:00 21,6 18,6 9 5 WNW 1019,0 12
20.06.2018 10:00:00 21,5 18,4 8 4 W 1018,9 -
20.06.2018 09:00:00 20,0 19,2 8 4 WSW 1018,9 -
20.06.2018 08:00:00 17,7 17,7 4 2 SW 1018,9 6
20.06.2018 07:00:00 16,0 16,0 5 3 SW 1018,6 -
20.06.2018 06:00:00 15,8 15,8 5 3 SW 1018,5 -
20.06.2018 05:00:00 16,0 16,0 0 0 N 1018,5 -
20.06.2018 04:00:00 16,9 16,4 2 1 SSW 1018,7 -
20.06.2018 03:00:00 18,2 17,2 0 0 N 1019,2 -
20.06.2018 02:00:00 19,4 17,7 11 6 ENE 1019,6 -
20.06.2018 01:00:00 19,7 17,5 9 5 E 1020,2 -
20.06.2018 00:00:00 19,4 17,5 13 7 E 1020,4 -
19.06.2018 23:00:00 19,5 17,3 15 8 E 1020,6 25
19.06.2018 22:00:00 19,7 17,1 16 9 E 1020,3 -
19.06.2018 21:00:00 20,7 17,3 18 10 ENE 1020,4 -
19.06.2018 20:00:00 22,0 17,1 24 13 ENE 1020,4 30
19.06.2018 19:00:00 22,0 17,4 26 14 E 1020,7 -
19.06.2018 18:00:00 22,7 17,1 29 16 E 1021,2 -
19.06.2018 17:00:00 22,5 17,8 28 15 ENE 1021,7 30
19.06.2018 16:00:00 22,6 18,3 29 16 ENE 1022,2 -
19.06.2018 15:00:00 21,9 17,7 26 14 NE 1022,8 -
19.06.2018 14:00:00 21,1 17,7 22 12 NE 1023,4 25
19.06.2018 13:00:00 20,5 17,7 21 11 NE 1024,2 -
19.06.2018 12:00:00 20,0 17,6 21 11 NE 1024,6 -
19.06.2018 11:00:00 20,1 17,4 15 8 NE 1024,7 20
19.06.2018 10:00:00 19,6 18,1 9 5 NE 1025,1 -
19.06.2018 09:00:00 17,6 17,6 8 4 SE 1025,5 -
19.06.2018 08:00:00 16,9 16,9 11 6 E 1025,8 12
19.06.2018 07:00:00 16,7 16,7 4 2 E 1025,8 -
19.06.2018 06:00:00 16,5 16,5 2 1 ESE 1025,7 -
19.06.2018 05:00:00 16,7 16,7 4 2 ENE 1026,1 -
19.06.2018 04:00:00 17,1 17,1 8 4 E 1026,3 -
19.06.2018 03:00:00 17,2 17,2 0 0 N 1026,3 -
19.06.2018 02:00:00 17,7 17,4 8 4 NE 1026,9 -
19.06.2018 01:00:00 18,1 16,8 0 0 N 1027,2 -
19.06.2018 00:00:00 18,2 16,7 5 3 SE 1027,5 -
18.06.2018 23:00:00 18,5 16,8 4 2 SSE 1027,4 20
18.06.2018 22:00:00 18,7 16,7 4 2 S 1027,3 -
18.06.2018 21:00:00 19,5 16,5 0 0 N 1027,2 -
18.06.2018 20:00:00 19,5 16,3 4 2 E 1027,3 35
18.06.2018 19:00:00 19,4 16,1 9 5 NNE 1027,5 -
18.06.2018 18:00:00 20,1 16,9 9 5 NE 1027,8 -
18.06.2018 17:00:00 19,8 17,4 13 7 N 1027,9 30
18.06.2018 16:00:00 19,9 17,7 15 8 N 1027,9 -
18.06.2018 15:00:00 21,6 17,8 15 8 NW 1027,7 -
18.06.2018 14:00:00 21,3 17,7 13 7 WNW 1027,6 30
18.06.2018 13:00:00 21,4 17,4 15 8 W 1027,8 -
18.06.2018 12:00:00 19,6 16,7 11 6 W 1027,9 -
18.06.2018 11:00:00 20,3 15,3 11 6 WSW 1027,8 15
18.06.2018 10:00:00 19,4 15,3 13 7 SSW 1027,7 -
18.06.2018 09:00:00 17,7 15,5 11 6 SSW 1027,7 -
18.06.2018 08:00:00 16,5 16,0 9 5 SSW 1027,4 15
18.06.2018 07:00:00 15,1 14,9 9 5 SSW 1027,1 -
18.06.2018 06:00:00 14,7 14,7 8 4 SSW 1026,9 -
18.06.2018 05:00:00 13,7 13,7 4 2 SSW 1027,0 -
18.06.2018 04:00:00 13,9 13,9 0 0 N 1026,9 -
18.06.2018 03:00:00 14,5 14,3 5 3 SW 1026,8 -
18.06.2018 02:00:00 14,6 14,1 4 2 SW 1027,1 -
18.06.2018 01:00:00 15,2 14,2 5 3 SSW 1027,2 -
18.06.2018 00:00:00 16,1 14,3 0 0 N 1027,4 -
17.06.2018 23:00:00 17,0 14,6 5 3 WSW 1027,0 20
17.06.2018 22:00:00 18,2 14,7 5 3 W 1026,8 -
17.06.2018 21:00:00 20,5 15,1 5 3 NW 1026,4 -
17.06.2018 20:00:00 21,5 14,9 11 6 NNW 1026,4 25
17.06.2018 19:00:00 21,6 15,1 9 5 ENE 1026,1 -
17.06.2018 18:00:00 22,0 15,8 11 6 NNW 1026,0 -
17.06.2018 17:00:00 22,0 15,3 15 8 N 1025,8 25
17.06.2018 16:00:00 22,4 15,4 11 6 N 1025,6 -
17.06.2018 15:00:00 22,1 15,1 11 6 N 1025,4 -
17.06.2018 14:00:00 21,0 15,1 9 5 N 1025,8 30
17.06.2018 13:00:00 20,4 15,6 9 5 NNE 1025,8 -
17.06.2018 12:00:00 19,7 15,6 13 7 NNW 1026,0 -
17.06.2018 11:00:00 20,1 15,5 5 3 W 1025,5 25
17.06.2018 10:00:00 19,6 16,6 11 6 SW 1025,5 -
17.06.2018 09:00:00 17,9 16,9 9 5 SW 1025,3 -
17.06.2018 08:00:00 16,5 16,5 8 4 SSW 1024,8 -
17.06.2018 07:00:00 16,4 15,9 9 5 W 1024,4 -
17.06.2018 06:00:00 16,7 15,2 5 3 SW 1023,7 -
17.06.2018 05:00:00 16,4 15,6 8 4 S 1023,7 -
17.06.2018 04:00:00 16,3 15,4 8 4 SSW 1023,8 -
17.06.2018 03:00:00 16,4 15,3 8 4 SSW 1023,8 -
17.06.2018 02:00:00 15,8 14,2 5 3 SW 1023,8 -
17.06.2018 01:00:00 17,1 14,9 5 3 SW 1023,9 -
17.06.2018 00:00:00 17,4 14,9 8 4 WSW 1024,1 -
16.06.2018 23:00:00 17,8 14,6 8 4 W 1024,0 20
16.06.2018 22:00:00 18,0 14,5 8 4 WNW 1023,5 -
16.06.2018 21:00:00 19,2 14,5 4 2 WNW 1022,8 -
16.06.2018 20:00:00 19,4 14,4 9 5 NW 1022,7 25
16.06.2018 19:00:00 19,9 14,5 13 7 N 1022,2 -
16.06.2018 18:00:00 20,8 15,5 11 6 N 1021,7 -
16.06.2018 17:00:00 20,0 14,6 11 6 NNE 1021,5 25
16.06.2018 16:00:00 21,5 15,4 16 9 ENE 1021,3 -
16.06.2018 15:00:00 19,9 15,0 13 7 NNE 1021,6 -
16.06.2018 14:00:00 20,4 15,6 13 7 N 1021,6 15
16.06.2018 13:00:00 20,8 16,0 11 6 NNW 1021,4 -
16.06.2018 12:00:00 19,6 15,7 8 4 NW 1021,5 -
16.06.2018 11:00:00 18,7 16,9 4 2 WNW 1021,2 15
16.06.2018 10:00:00 17,2 16,8 4 2 NW 1021,0 -
16.06.2018 09:00:00 16,4 16,4 8 4 W 1020,9 -
16.06.2018 08:00:00 16,2 16,2 4 2 WSW 1020,2 12
16.06.2018 07:00:00 15,6 15,6 5 3 SW 1019,7 -
16.06.2018 06:00:00 15,5 15,5 8 4 SSW 1019,8 -
16.06.2018 05:00:00 15,5 15,5 4 2 SSW 1019,9 -
16.06.2018 04:00:00 14,7 14,7 0 0 N 1019,9 -
16.06.2018 03:00:00 15,2 15,2 0 0 N 1020,1 -
16.06.2018 02:00:00 15,8 15,8 4 2 SW 1020,6 -
16.06.2018 01:00:00 15,9 15,9 8 4 SSW 1021,1 -
16.06.2018 00:00:00 16,0 16,0 0 0 N 1021,2 -
15.06.2018 23:00:00 15,9 15,9 4 2 ENE 1021,4 7
15.06.2018 22:00:00 16,0 16,0 5 3 N 1021,4 -
15.06.2018 21:00:00 16,3 16,3 13 7 N 1021,3 -
15.06.2018 20:00:00 17,1 17,1 11 6 N 1021,0 4,0
15.06.2018 19:00:00 17,7 16,6 13 7 N 1020,8 -

tt = Température de l'air
td = dewpoint
ff = Vitesse du vent
dd = Direction du vent
ppp = reduced air pressure
vv = visibility

stations d'obs. à proximité